Location: Arroyo Retuerta
(40.5469°N, 4.3534°W)
Time: 05:33:12
(UTC+00:00)

ATLAS 3B R/B - Pass Details

Date: 01 June 2020
Orbit: 1024 x 1171 km, 63.8° (Epoch: 15 June)

Event Time Altitude Azimuth Distance (km) Brightness Sun altitude
Rises 23:08:53 0° 329° (NNW) 3,818 6.8 -25.4°
Reaches altitude 10° 23:11:35 10° 335° (NNW) 2,879 6.0 -25.5°
Maximum altitude 23:18:10 49° 49° (NE) 1,365 3.3 -25.8°
Enters shadow 23:21:10 31° 105° (ESE) 1,802 3.6 -26.0°
